This is the latest recevied weather packets stored in our database for station/object ON7EQ-13. If no packets are shown the sender has not sent any weather packets the latest 10 day(s).
| Time | Temp. | Humidity | Pressure | Rain* | Wind** | Luminosity | Snow |
|---|---|---|---|---|---|---|---|
| 1777545794 | 20° C | 33% | 1024.3 hPa | - | - | - | - |
| 1777545194 | 20° C | 32% | 1024.3 hPa | - | - | - | - |
| 1777544594 | 20° C | 34% | 1024.4 hPa | - | - | - | - |
| 1777543994 | 20° C | 35% | 1024.4 hPa | - | - | - | - |
| 1777543394 | 18.89° C | 32% | 1024.5 hPa | - | - | - | - |
| 1777542794 | 19.44° C | 35% | 1024.5 hPa | - | - | - | - |
| 1777542194 | 18.89° C | 36% | 1024.4 hPa | - | - | - | - |
| 1777541594 | 18.33° C | 36% | 1024.4 hPa | - | - | - | - |
| 1777540994 | 18.33° C | 36% | 1024.6 hPa | - | - | - | - |
| 1777540394 | 17.78° C | 37% | 1024.6 hPa | - | - | - | - |
| 1777539794 | 17.78° C | 38% | 1024.7 hPa | - | - | - | - |
| 1777539195 | 17.22° C | 38% | 1024.8 hPa | - | - | - | - |
| 1777538594 | 16.67° C | 40% | 1025 hPa | - | - | - | - |
| 1777537994 | 16.11° C | 39% | 1025 hPa | - | - | - | - |
| 1777537394 | 15.56° C | 40% | 1025.1 hPa | - | - | - | - |
| 1777536794 | 15.56° C | 41% | 1025.1 hPa | - | - | - | - |
| 1777536194 | 15° C | 41% | 1025 hPa | - | - | - | - |
| 1777535594 | 14.44° C | 42% | 1025.1 hPa | - | - | - | - |
| 1777534995 | 13.89° C | 43% | 1025.1 hPa | - | - | - | - |
| 1777534394 | 13.89° C | 43% | 1025.1 hPa | - | - | - | - |
| 1777533794 | 13.33° C | 45% | 1025.2 hPa | - | - | - | - |
| 1777533194 | 12.78° C | 45% | 1025.3 hPa | - | - | - | - |
| 1777532594 | 12.22° C | 45% | 1025.3 hPa | - | - | - | - |
| 1777531994 | 11.67° C | 46% | 1025.3 hPa | - | - | - | - |
| 1777531394 | 11.67° C | 47% | 1025.3 hPa | - | - | - | - |
* Rain since midnight (hover to see other rain measurements)
** Current wind speed in m/s (hover to see current wind gust speed)